IZ1UQG-2 Weather Reports


Display with metric or nautical units.
time (UTC)temp
F
wind
direction
speed
MPH
gust
MPH
rain 1hr
in
rain 24hr
in
rain mn
in
humidity
%
barometer
mb
20260901225205 73 301 0.0 2.0 0.00 5.04 0.00 74 1017.0
20260901224804 73 268 0.0 1.0 0.00 5.04 0.00 75 1016.9
20260901224404 72 263 0.0 1.0 0.00 5.04 0.00 75 1017.1
20260901224004 72 272 0.0 2.0 0.00 5.04 0.00 75 1017.0
20260901223604 72 283 1.0 2.0 0.00 5.04 0.00 75 1017.1
20260901223204 72 262 1.0 3.0 0.00 5.04 0.00 75 1017.0
20260901222404 72 244 1.0 3.0 0.00 5.04 0.00 76 1017.0
20260901220803 72 231 2.0 3.0 0.00 5.04 0.00 76 1017.1
20260901220404 72 230 1.0 3.0 0.00 5.04 0.00 75 1017.0
20260901220008 73 245 1.0 3.0 0.00 5.04 0.00 75 1017.0
20260901215604 73 246 1.0 3.0 0.00 5.04 5.04 75 1016.9
20260901215204 73 267 0.0 2.0 0.00 5.04 5.04 74 1016.9
20260901214804 73 268 1.0 2.0 0.00 5.04 5.04 75 1016.9
20260901214404 73 266 1.0 2.0 0.00 5.04 5.04 75 1017.0
20260901214005 73 252 0.0 2.0 0.00 5.04 5.04 75 1017.0
20260901213604 73 240 0.0 2.0 0.00 5.04 5.04 75 1016.9
20260901213204 73 245 0.0 2.0 0.00 5.04 5.04 75 1016.9
20260901212804 74 258 0.0 2.0 0.00 5.04 5.04 74 1016.9
20260901212404 74 264 0.0 1.0 0.00 5.04 5.04 73 1016.8
20260901212004 74 231 1.0 3.0 0.00 5.04 5.04 72 1016.9
20260901211604 74 220 1.0 3.0 0.00 5.04 5.04 72 1016.8
20260901211204 74 213 2.0 4.0 0.00 5.04 5.04 73 1016.8
20260901210804 74 207 2.0 4.0 0.00 5.04 5.04 72 1016.8
20260901210404 74 202 2.0 4.0 0.00 5.04 5.04 72 1016.8
20260901210004 74 204 2.0 4.0 0.00 5.04 5.04 72 1016.8
20260901205604 74 207 1.0 4.0 0.00 5.04 5.04 72 1016.8
20260901205204 75 237 1.0 3.0 0.00 5.04 5.04 72 1016.7
20260901204804 75 229 2.0 3.0 0.00 5.04 5.04 72 1016.8
20260901204404 75 226 2.0 3.0 0.00 5.04 5.04 72 1016.7
20260901204004 75 227 1.0 4.0 0.00 5.04 5.04 72 1016.7
20260901203604 75 265 1.0 4.0 0.00 5.04 5.04 72 1016.5
20260901203205 75 314 2.0 6.0 0.00 5.04 5.04 71 1016.5
20260901202004 75 269 2.0 4.0 0.00 5.04 5.04 73 1016.5
20260901201604 74 279 2.0 4.0 0.00 5.04 5.04 74 1016.5
20260901201204 74 311 3.0 5.0 0.00 5.04 5.04 75 1016.6
20260901200803 73 314 3.0 5.0 0.00 5.04 5.04 76 1016.5
20260901200404 74 317 3.0 5.0 0.00 5.04 5.04 74 1016.3
20260901200005 74 319 3.0 5.0 0.00 5.04 5.04 73 1016.3
20260901195604 74 328 2.0 5.0 0.00 5.04 5.04 73 1016.2
20260901195204 75 314 1.0 5.0 0.00 5.04 5.04 72 1016.2
20260901194804 75 246 2.0 5.0 0.00 5.04 5.04 72 1016.1
20260901194403 75 227 3.0 6.0 0.00 5.04 5.04 72 1016.2
20260901194005 75 225 3.0 6.0 0.00 5.04 5.04 72 1016.0
20260901193604 75 225 2.0 5.0 0.00 5.04 5.04 72 1015.9
20260901193204 76 228 1.0 4.0 0.00 5.04 5.04 72 1015.9
20260901192804 76 242 0.0 2.0 0.00 5.04 5.04 72 1016.0
20260901192404 76 223 1.0 6.0 0.00 5.04 5.04 72 1016.0
20260901192005 75 215 3.0 7.0 0.00 5.04 5.04 72 1016.0
20260901191604 75 208 4.0 7.0 0.00 5.04 5.04 72 1015.9
20260901191204 76 207 4.0 7.0 0.00 5.04 5.04 72 1015.8
20260901190804 76 206 5.0 8.0 0.00 5.04 5.04 71 1015.8
20260901190405 76 206 5.0 8.0 0.00 5.04 5.04 71 1015.7
20260901190004 76 206 5.0 8.0 0.00 5.04 5.04 70 1015.6
20260901185604 76 212 4.0 7.0 0.00 5.04 5.04 70 1015.6
20260901185204 77 213 4.0 7.0 0.00 5.04 5.04 70 1015.5
20260901184804 76 210 4.0 6.0 0.00 5.04 5.04 71 1015.5
20260901184404 76 211 3.0 5.0 0.00 5.04 5.04 71 1015.5
20260901184004 77 230 3.0 5.0 0.00 5.04 5.04 71 1015.4
20260901183604 77 247 3.0 5.0 0.00 5.04 5.04 70 1015.4
20260901183205 77 241 2.0 5.0 0.00 5.04 5.04 71 1015.3
20260901182804 77 215 3.0 7.0 0.00 5.04 5.04 71 1015.2
20260901182404 77 209 3.0 7.0 0.00 5.04 5.04 70 1015.2
20260901182004 78 210 3.0 7.0 0.00 5.04 5.04 70 1015.1
20260901181604 78 210 3.0 6.0 0.00 5.04 5.04 69 1015.2
20260901181204 78 210 3.0 6.0 0.00 5.04 5.04 69 1015.1
20260901180804 78 212 1.0 6.0 0.00 5.04 5.04 68 1015.0
20260901180404 78 225 1.0 5.0 0.00 5.04 5.04 68 1015.2
20260901180004 78 220 2.0 6.0 0.00 5.04 5.04 69 1015.1
20260901175604 78 214 4.0 7.0 0.00 5.04 5.04 69 1015.0
20260901175204 78 211 4.0 7.0 0.00 5.04 5.04 69 1015.0
20260901174404 79 204 5.0 7.0 0.00 5.04 5.04 69 1014.9
20260901174005 79 201 5.0 8.0 0.00 5.04 5.04 68 1015.0
20260901173604 79 206 4.0 8.0 0.00 5.04 5.04 68 1014.8
20260901173204 80 213 3.0 5.0 0.00 5.04 5.04 67 1014.9
20260901172804 80 218 3.0 5.0 0.00 5.04 5.04 65 1014.8
20260901172403 80 211 3.0 5.0 0.00 5.04 5.04 65 1014.8
20260901172004 80 216 2.0 5.0 0.00 5.04 5.04 64 1014.8
20260901171604 80 230 1.0 4.0 0.00 5.04 5.04 64 1014.8
20260901171204 80 230 2.0 5.0 0.00 5.04 5.04 63 1014.9
20260901170804 80 214 3.0 6.0 0.00 5.04 5.04 64 1014.8
20260901170403 80 210 4.0 6.0 0.00 5.04 5.04 63 1014.7
20260901170005 80 211 3.0 6.0 0.00 5.04 5.04 64 1014.8
20260901165604 80 212 2.0 5.0 0.00 5.04 5.04 64 1014.7
20260901165204 81 211 2.0 5.0 0.00 5.04 5.04 64 1014.7
20260901164804 81 208 2.0 4.0 0.00 5.04 5.04 63 1014.8
20260901164404 81 214 2.0 4.0 0.00 5.04 5.04 62 1014.7
20260901164004 82 287 1.0 4.0 0.00 5.04 5.04 61 1014.8
20260901163604 81 326 1.0 2.0 0.00 5.04 5.04 61 1014.7
20260901163205 82 326 1.0 2.0 0.00 5.04 5.04 60 1014.7
20260901162804 82 29 1.0 3.0 0.00 5.04 5.04 59 1014.7
20260901162005 82 69 2.0 5.0 0.00 5.04 5.04 58 1014.7
20260901161604 83 74 2.0 5.0 0.00 5.04 5.04 57 1014.7
20260901161204 82 70 2.0 7.0 0.00 5.04 5.04 58 1014.8
20260901160804 82 79 3.0 7.0 0.00 5.04 5.04 57 1014.6
20260901160403 83 90 3.0 7.0 0.00 5.04 5.04 57 1014.6
20260901155604 83 88 5.0 9.0 0.00 5.04 5.04 56 1014.6
20260901155204 83 89 5.0 9.0 0.00 5.04 5.04 56 1014.7
20260901154804 83 84 4.0 7.0 0.00 5.04 5.04 56 1014.7
20260901154403 83 85 4.0 8.0 0.00 5.04 5.04 55 1014.8
20260901154004 83 92 4.0 8.0 0.00 5.04 5.04 56 1014.7
20260901153604 83 101 4.0 8.0 0.00 5.04 5.04 55 1014.7
20260901153204 84 91 3.0 8.0 0.00 5.04 5.04 55 1014.7
20260901152804 83 74 3.0 7.0 0.00 5.04 5.04 56 1014.7
20260901152404 83 85 4.0 9.0 0.00 5.04 5.04 56 1014.7
20260901151204 83 77 4.0 11.0 0.00 5.04 5.04 56 1014.7
20260901150804 83 60 4.0 9.0 0.00 5.04 5.04 57 1014.6
20260901150403 83 66 5.0 10.0 0.00 5.04 5.04 58 1014.6
20260901150005 83 74 5.0 10.0 0.00 5.04 5.04 57 1014.8
20260901145604 83 70 5.0 9.0 0.00 5.04 5.04 56 1014.8
20260901145204 83 69 6.0 11.0 0.00 5.04 5.04 57 1014.8
20260901144804 83 74 7.0 12.0 0.00 5.04 5.04 58 1014.8
20260901144404 83 76 6.0 12.0 0.00 5.04 5.04 57 1014.8
20260901144004 83 71 5.0 10.0 0.00 5.04 5.04 58 1014.8
20260901143604 83 80 6.0 10.0 0.00 5.04 5.04 58 1014.8
20260901143204 83 81 5.0 10.0 0.00 5.04 5.04 57 1014.9
20260901142804 83 80 5.0 10.0 0.00 5.04 5.04 56 1014.9
20260901142404 84 84 4.0 10.0 0.00 5.04 5.04 56 1014.9
20260901142004 84 103 3.0 10.0 0.00 5.04 5.04 56 1015.0
20260901141604 84 112 4.0 11.0 0.00 5.04 5.04 56 1015.0
20260901141204 84 100 4.0 11.0 1.00 5.04 5.04 56 1015.0
20260901140804 84 98 5.0 11.0 1.01 5.04 5.04 55 1015.0
20260901140404 84 100 5.0 11.0 1.01 5.04 5.04 56 1014.9
20260901140004 84 98 4.0 13.0 2.01 5.04 5.04 56 1014.9
20260901135604 84 92 5.0 13.0 2.01 5.04 5.04 56 1015.0
20260901134804 83 87 6.0 13.0 2.02 5.04 5.04 57 1015.1
20260901134404 83 87 5.0 11.0 2.02 5.04 5.04 57 1015.1
20260901134004 84 79 4.0 12.0 2.02 5.04 5.04 56 1015.1
20260901133604 84 83 5.0 12.0 2.02 5.04 5.04 56 1015.1
20260901132804 83 49 5.0 12.0 2.02 5.04 5.04 57 1015.2
20260901132404 82 36 5.0 10.0 2.02 5.04 5.04 58 1015.2
20260901132004 82 46 5.0 10.0 2.02 5.04 5.04 58 1015.4
20260901131604 82 36 5.0 10.0 2.02 5.04 5.04 58 1015.3
20260901131204 83 36 5.0 10.0 1.02 4.04 4.04 61 1015.3
20260901130804 82 29 5.0 10.0 1.01 4.03 4.03 58 1015.4
20260901130404 82 19 5.0 10.0 1.01 4.03 4.03 58 1015.3
20260901130004 83 25 5.0 11.0 0.01 3.03 3.03 61 1015.4
20260901125604 82 52 5.0 11.0 0.01 3.03 3.03 59 1015.6
20260901125204 82 67 5.0 12.0 0.00 3.02 3.02 58 1015.6
20260901124803 82 72 7.0 12.0 0.00 3.02 3.02 57 1015.6
20260901124404 81 81 7.0 12.0 0.00 3.02 3.02 58 1015.8
20260901124004 82 87 6.0 11.0 0.00 3.02 3.02 57 1015.7
20260901123605 82 79 7.0 12.0 0.00 3.02 3.02 57 1015.8
20260901122804 81 61 6.0 12.0 0.00 3.02 3.02 57 1015.9
20260901122404 81 63 5.0 11.0 0.00 3.02 3.02 57 1016.0
20260901122004 81 78 6.0 11.0 0.00 3.02 3.02 56 1015.9
20260901121604 81 77 7.0 11.0 0.00 3.02 3.02 57 1016.0
20260901120404 81 59 7.0 14.0 0.00 3.02 3.02 57 1016.0
20260901120005 81 63 7.0 14.0 0.00 3.02 3.02 56 1016.1
20260901115604 81 60 6.0 11.0 0.00 3.02 3.02 56 1016.1
20260901115203 82 50 4.0 10.0 0.00 3.02 3.02 56 1016.1
20260901114804 82 65 5.0 10.0 0.00 3.02 3.02 56 1016.0
20260901114404 81 64 5.0 10.0 0.00 3.02 3.02 55 1016.2
20260901114005 81 60 5.0 10.0 0.00 3.02 3.02 55 1016.1
20260901113604 81 62 5.0 10.0 0.00 3.02 3.02 55 1016.3
20260901113204 81 67 5.0 10.0 0.00 3.02 3.02 54 1016.3
20260901112805 81 68 6.0 11.0 0.00 3.02 3.02 54 1016.5
20260901112404 80 76 6.0 11.0 0.00 3.02 3.02 57 1016.4
20260901112004 80 84 6.0 11.0 0.00 3.02 3.02 57 1016.5
20260901111604 81 87 5.0 9.0 0.00 3.02 3.02 56 1016.4
20260901111204 81 90 6.0 9.0 0.00 3.02 3.02 54 1016.6
20260901110404 80 84 6.0 10.0 0.00 3.02 3.02 53 1016.6
20260901110004 81 77 6.0 11.0 0.00 3.02 3.02 52 1016.5
20260901105205 79 74 7.0 11.0 0.00 3.02 3.02 48 1016.5
20260901104804 80 75 7.0 10.0 0.00 3.02 3.02 50 1016.5
20260901104403 80 77 7.0 11.0 1.01 3.02 3.02 47 1016.6
20260901104004 79 80 7.0 11.0 2.01 3.02 3.02 46 1016.7
20260901103604 80 79 7.0 11.0 2.01 4.02 3.02 46 1016.6
20260901103203 79 78 6.0 10.0 2.02 4.02 3.02 46 1016.6
20260901102805 79 73 6.0 10.0 2.02 4.02 3.02 45 1016.7
20260901102404 79 69 5.0 9.0 2.02 4.02 3.02 45 1016.8
20260901102004 79 66 6.0 11.0 2.02 4.03 3.02 45 1016.7
20260901101604 78 64 6.0 12.0 2.02 4.03 3.02 44 1016.7
20260901101204 78 71 6.0 12.0 2.02 4.03 3.02 45 1016.8
20260901100004 78 88 6.0 11.0 2.02 4.03 3.02 46 1016.9
20260901095604 79 91 5.0 11.0 2.02 4.03 3.02 46 1016.9
20260901095204 79 100 5.0 9.0 2.02 5.03 3.02 46 1016.8
20260901094804 79 100 4.0 8.0 3.02 5.03 3.02 45 1016.8
20260901094404 79 95 3.0 7.0 2.02 4.03 2.02 46 1016.9
20260901094005 80 75 2.0 4.0 1.02 3.03 1.02 47 1016.9
20260901093603 80 86 2.0 6.0 1.02 4.03 1.02 47 1016.9
20260901093204 80 96 2.0 6.0 1.01 4.03 1.01 43 1016.9
20260901092805 79 114 2.0 6.0 1.01 4.03 1.01 42 1016.9
20260901092403 79 125 2.0 5.0 1.01 4.03 1.01 42 1017.0
20260901091604 79 120 2.0 6.0 1.01 4.03 1.01 45 1016.9
20260901091204 78 131 2.0 6.0 1.01 4.03 1.01 45 1017.0
20260901090403 79 39 1.0 4.0 1.01 4.03 1.01 44 1017.0
20260901090004 78 353 1.0 4.0 1.01 4.03 1.01 44 1017.0
20260901085604 78 341 1.0 4.0 1.01 5.03 1.01 44 1017.0
20260901085204 78 356 1.0 3.0 1.01 5.03 1.01 44 1016.9
20260901084004 76 41 1.0 3.0 0.00 4.03 0.00 44 1017.0
20260901083604 76 24 1.0 3.0 0.00 4.03 0.00 45 1017.1
20260901082803 76 2 2.0 5.0 0.00 4.03 0.00 47 1017.1
20260901082404 75 350 3.0 5.0 0.00 4.03 0.00 48 1017.2
20260901082004 75 343 3.0 6.0 0.00 4.03 0.00 49 1017.2
20260901081604 74 342 3.0 6.0 0.00 4.03 0.00 49 1017.2
20260901080805 72 335 4.0 5.0 0.00 5.04 0.00 51 1017.3
20260901080404 72 329 4.0 6.0 0.00 5.04 0.00 50 1017.2
20260901080004 72 321 4.0 6.0 0.00 5.04 0.00 51 1017.3
20260901075604 72 317 3.0 6.0 0.00 5.04 0.00 51 1017.2
20260901075204 73 325 1.0 6.0 0.00 5.04 0.00 50 1017.1
20260901074804 73 335 1.0 4.0 0.00 5.04 0.00 50 1017.1
20260901074005 72 349 2.0 5.0 0.00 5.04 0.00 50 1017.1
20260901073603 72 354 2.0 5.0 0.00 5.04 0.00 49 1017.1
20260901072803 72 340 2.0 5.0 0.00 5.04 0.00 52 1017.0
20260901072404 72 345 3.0 5.0 0.00 5.04 0.00 50 1017.0
20260901071604 72 344 4.0 8.0 0.00 5.04 0.00 51 1017.0
20260901071204 71 342 4.0 8.0 0.00 5.04 0.00 50 1016.9
20260901070805 71 344 4.0 8.0 0.00 5.04 0.00 51 1016.9
20260901070404 71 340 4.0 8.0 0.00 5.04 0.00 50 1016.9
20260901070004 71 336 3.0 6.0 0.00 5.04 0.00 51 1016.9
20260901065204 70 339 2.0 4.0 0.00 5.04 0.00 51 1016.9
20260901064804 71 354 3.0 7.0 0.00 5.04 0.00 50 1016.8
20260901064403 71 1 3.0 8.0 0.00 5.04 0.00 51 1016.8
20260901064004 70 359 3.0 8.0 0.00 5.04 0.00 51 1016.7
20260901063604 70 7 2.0 8.0 0.00 5.04 0.00 51 1016.7
20260901062803 69 25 2.0 5.0 0.00 5.04 0.00 52 1016.7
20260901062404 69 19 2.0 5.0 0.00 5.04 0.00 53 1016.6
20260901062004 69 27 2.0 5.0 0.00 5.04 0.00 52 1016.5
20260901061603 69 58 2.0 4.0 0.00 5.04 0.00 53 1016.4
20260901061204 69 65 2.0 4.0 0.00 5.04 0.00 53 1016.4
20260901060805 69 57 2.0 4.0 0.00 5.04 0.00 54 1016.4
20260901060404 69 32 2.0 4.0 0.00 5.04 0.00 53 1016.4
20260901060005 69 33 2.0 4.0 0.00 5.04 0.00 53 1016.3
20260901055603 69 62 1.0 4.0 0.00 5.04 0.00 52 1016.3
20260901055204 69 85 1.0 4.0 0.00 5.04 0.00 52 1016.2
20260901054804 69 45 1.0 2.0 0.00 5.04 0.00 53 1016.1
20260901054404 68 48 1.0 2.0 0.00 5.04 0.00 55 1016.1
20260901053604 68 349 1.0 5.0 0.00 5.04 0.00 56 1016.0
20260901053204 68 345 2.0 5.0 0.00 5.04 0.00 56 1015.9
20260901052804 68 349 3.0 5.0 0.00 5.04 0.00 56 1015.7
20260901052404 68 6 2.0 5.0 0.00 5.04 0.00 57 1015.7
20260901051603 68 22 1.0 4.0 0.00 5.04 0.00 57 1015.5
20260901051203 69 53 1.0 4.0 0.00 5.04 0.00 53 1015.5
20260901050804 69 77 1.0 3.0 0.00 5.04 0.00 54 1015.4
20260901050404 69 41 1.0 4.0 0.00 5.04 0.00 55 1015.4
20260901050005 69 23 1.0 4.0 0.00 5.04 0.00 53 1015.3
20260901045605 69 67 1.0 4.0 0.00 5.04 0.00 53 1015.4
20260901045203 69 115 1.0 3.0 0.00 5.04 0.00 52 1015.2
20260901044405 68 212 2.0 5.0 0.00 5.04 0.00 56 1015.3
20260901044004 67 254 2.0 5.0 0.00 5.04 0.00 59 1015.3
20260901043603 68 320 3.0 7.0 0.00 5.04 0.00 59 1015.2
20260901043205 68 324 3.0 7.0 0.00 5.04 0.00 57 1015.1
20260901042804 67 327 2.0 7.0 0.00 5.04 0.00 58 1015.2
20260901042404 68 329 1.0 5.0 0.00 5.04 0.00 60 1015.0
20260901042005 69 343 1.0 5.0 0.00 5.04 0.00 54 1014.9
20260901041604 69 345 1.0 5.0 0.00 5.04 0.00 52 1014.8
20260901041205 69 2 1.0 3.0 0.00 5.04 0.00 54 1014.8
20260901040804 69 19 1.0 6.0 0.00 5.04 0.00 56 1014.7
20260901040403 69 27 2.0 6.0 0.00 5.04 0.00 53 1014.7
20260901040004 68 32 1.0 3.0 0.00 5.04 0.00 55 1014.7
20260901035603 68 192 1.0 7.0 0.00 5.04 0.00 59 1014.7
20260901035204 68 201 1.0 7.0 0.00 5.04 0.00 58 1014.6
20260901034804 69 238 1.0 4.0 0.00 5.04 0.00 58 1014.7
20260901034404 68 235 1.0 4.0 0.00 5.04 0.00 57 1014.7
20260901034004 68 232 1.0 4.0 0.00 5.04 0.00 60 1014.7
20260901033204 69 250 1.0 2.0 0.00 5.04 0.00 58 1014.7
20260901032803 69 235 0.0 2.0 0.00 5.04 0.00 59 1014.6
20260901032403 69 261 0.0 3.0 0.00 5.04 0.00 58 1014.5
20260901032004 69 163 1.0 5.0 0.00 5.04 0.00 58 1014.4
20260901031604 70 173 2.0 5.0 0.00 5.04 0.00 56 1014.3
20260901031204 69 207 1.0 5.0 0.00 5.04 0.00 55 1014.5
20260901030804 69 306 1.0 4.0 0.00 5.04 0.00 56 1014.4
20260901030403 69 321 1.0 4.0 0.00 5.04 0.00 59 1014.4
20260901030005 69 324 1.0 4.0 0.00 5.04 0.00 59 1014.5
20260901025603 69 358 1.0 3.0 0.00 5.04 0.00 58 1014.5
20260901025204 69 90 1.0 4.0 0.00 5.04 0.00 57 1014.5
20260901024804 69 145 1.0 4.0 0.00 5.04 0.00 59 1014.4
20260901024004 68 321 1.0 5.0 0.00 5.04 0.00 59 1014.5
20260901023603 69 15 1.0 5.0 0.00 5.04 0.00 61 1014.5
20260901023204 69 132 1.0 4.0 0.00 5.04 0.00 59 1014.4
20260901022804 69 160 1.0 4.0 0.00 5.04 0.00 58 1014.4
20260901022404 68 211 1.0 4.0 0.00 5.04 0.00 59 1014.4
20260901022004 69 264 1.0 4.0 0.00 5.04 0.00 59 1014.4
20260901021604 69 289 1.0 3.0 0.00 5.04 0.00 59 1014.4
20260901021204 69 278 1.0 3.0 0.00 5.04 0.00 61 1014.4
20260901020804 69 268 1.0 3.0 0.00 5.04 0.00 61 1014.3
20260901020404 69 260 1.0 3.0 0.00 5.04 0.00 59 1014.4
20260901020004 69 262 1.0 3.0 0.00 5.04 0.00 59 1014.3
20260901015603 69 253 1.0 4.0 0.00 5.04 0.00 59 1014.3
20260901015203 70 223 1.0 4.0 0.00 5.04 0.00 59 1014.3
20260901014804 70 235 1.0 4.0 0.00 5.04 0.00 58 1014.3
20260901014404 70 284 1.0 2.0 0.00 5.04 0.00 58 1014.4
20260901014004 70 255 1.0 4.0 0.00 5.04 0.00 59 1014.4
20260901013604 70 246 1.0 4.0 0.00 5.04 0.00 58 1014.4
20260901012804 70 250 1.0 4.0 0.00 5.04 0.00 59 1014.4
20260901012403 70 243 1.0 3.0 0.00 5.04 0.00 54 1014.4
20260901012005 70 273 1.0 2.0 0.00 5.04 0.00 58 1014.4
20260901011603 71 229 1.0 2.0 0.00 5.04 0.00 54 1014.3
20260901011204 71 219 1.0 4.0 0.00 5.04 0.00 58 1014.4
20260901010804 71 210 1.0 4.0 0.00 5.04 0.00 52 1014.4
20260901010403 71 243 1.0 4.0 0.00 5.04 0.00 56 1014.3
20260901010004 71 234 1.0 4.0 0.00 5.04 0.00 56 1014.3
20260901005605 71 236 1.0 4.0 0.00 5.04 0.00 53 1014.1
20260901005204 71 221 1.0 4.0 0.00 5.04 0.00 54 1014.3
20260901004804 71 207 2.0 4.0 0.00 5.04 0.00 58 1014.2
20260901004004 71 213 1.0 4.0 0.00 5.04 0.00 56 1014.2
20260901003604 71 255 1.0 3.0 0.00 5.04 0.00 56 1014.2
20260901002404 72 285 1.0 6.0 0.00 5.04 0.00 53 1014.2
20260901002004 71 308 1.0 6.0 0.00 5.04 0.00 56 1014.3
20260901000803 71 197 0.0 3.0 0.00 5.04 0.00 58 1014.2
20260901000405 71 212 1.0 3.0 0.00 5.04 0.00 59 1014.1
20260831235604 73 324 1.0 4.0 0.00 5.04 0.00 52 1014.0
20260831235204 73 211 1.0 4.0 0.00 5.04 0.00 56 1014.0
20260831234803 73 189 1.0 4.0 0.00 5.04 0.00 53 1014.1
20260831234404 73 167 1.0 3.0 0.00 5.04 0.00 53 1014.1
20260831234005 73 104 1.0 6.0 0.00 5.04 0.00 52 1013.9
20260831233604 73 106 1.0 6.0 0.00 5.04 0.00 55 1013.8
20260831233204 72 131 1.0 3.0 0.00 5.04 0.00 57 1013.9
20260831232803 72 265 1.0 4.0 0.00 5.04 0.00 57 1013.9
20260831232404 72 261 1.0 4.0 0.00 5.04 0.00 59 1014.0
20260831232004 72 213 1.0 4.0 0.00 5.04 0.00 59 1013.8
20260831231604 72 266 2.0 4.0 0.00 5.04 0.00 58 1013.9
20260831231205 72 302 1.0 4.0 0.00 5.04 0.00 61 1013.9
20260831230805 72 325 1.0 4.0 0.00 5.04 0.00 61 1013.9
20260831230404 72 321 1.0 4.0 0.00 5.04 0.00 60 1013.9
20260831230005 72 351 1.0 4.0 0.00 5.04 0.00 63 1013.8